TimeEST,TemperatureF,Dew PointF,Humidity,Sea Level PressureIn,VisibilityMPH,Wind Direction,Wind SpeedMPH,Gust SpeedMPH,PrecipitationIn,Events,Conditions,WindDirDegrees,DateUTC
12:53 AM,32.0,26.1,79,29.89,10.0,Calm,Calm,-,N/A,,Partly Cloudy,0,2012-12-24 05:53:00
1:53 AM,32.0,27.0,82,29.86,10.0,Calm,Calm,-,N/A,,Mostly Cloudy,0,2012-12-24 06:53:00
2:53 AM,35.1,28.9,78,29.86,10.0,Calm,Calm,-,N/A,,Overcast,0,2012-12-24 07:53:00
3:53 AM,35.1,30.0,82,29.83,10.0,Calm,Calm,-,0.01,,Overcast,0,2012-12-24 08:53:00
4:53 AM,35.1,30.9,85,29.82,7.0,ESE,3.5,-,0.02,Rain,Light Rain,120,2012-12-24 09:53:00
5:03 AM,35.6,30.2,81,29.80,6.0,East,3.5,-,0.00,Rain,Light Rain,90,2012-12-24 10:03:00
5:17 AM,35.6,32.0,87,29.80,4.0,Calm,Calm,-,0.01,Rain,Light Rain,0,2012-12-24 10:17:00
5:53 AM,35.1,32.0,89,29.81,7.0,ESE,4.6,-,0.01,,Overcast,120,2012-12-24 10:53:00
6:53 AM,35.1,33.1,92,29.81,5.0,ESE,3.5,-,0.00,,Overcast,120,2012-12-24 11:53:00
7:53 AM,35.1,33.1,92,29.80,4.0,ESE,4.6,-,0.00,,Overcast,120,2012-12-24 12:53:00
8:36 AM,35.6,33.8,93,29.79,2.5,Calm,Calm,-,N/A,,Overcast,0,2012-12-24 13:36:00
8:53 AM,35.1,33.1,92,29.81,1.5,Calm,Calm,-,N/A,,Overcast,0,2012-12-24 13:53:00
9:14 AM,35.6,33.8,93,29.80,0.8,Calm,Calm,-,N/A,,Overcast,0,2012-12-24 14:14:00
9:31 AM,35.6,35.6,100,29.79,0.2,ESE,3.5,-,N/A,Fog,Fog,120,2012-12-24 14:31:00
9:53 AM,36.0,35.1,97,29.81,0.2,SE,4.6,-,N/A,Fog,Fog,130,2012-12-24 14:53:00
10:53 AM,37.0,36.0,96,29.83,0.2,Calm,Calm,-,N/A,Fog,Fog,0,2012-12-24 15:53:00
11:53 AM,37.9,37.0,97,29.83,0.2,WSW,4.6,-,N/A,Fog,Fog,240,2012-12-24 16:53:00
12:53 PM,39.0,37.9,96,29.82,1.0,West,10.4,-,N/A,,Overcast,280,2012-12-24 17:53:00
1:00 PM,37.4,37.4,100,29.80,3.0,WNW,8.1,20.7,N/A,,Overcast,290,2012-12-24 18:00:00
1:11 PM,37.4,35.6,93,29.80,3.0,WNW,9.2,-,N/A,,Overcast,290,2012-12-24 18:11:00
1:31 PM,37.4,35.6,93,29.79,3.0,West,5.8,-,N/A,,Overcast,280,2012-12-24 18:31:00
1:53 PM,39.0,36.0,89,29.81,4.0,WNW,9.2,-,N/A,,Overcast,290,2012-12-24 18:53:00
2:15 PM,39.2,35.6,87,29.79,6.0,WNW,9.2,-,N/A,,Haze,290,2012-12-24 19:15:00
2:53 PM,39.9,32.0,73,29.82,8.0,NW,5.8,-,N/A,,Partly Cloudy,310,2012-12-24 19:53:00
3:48 PM,37.4,30.2,75,29.84,5.0,NW,8.1,-,N/A,,Haze,320,2012-12-24 20:48:00
3:53 PM,37.0,30.9,79,29.86,5.0,NW,6.9,-,N/A,,Haze,310,2012-12-24 20:53:00
4:14 PM,35.6,30.2,81,29.84,4.0,NW,10.4,-,N/A,,Haze,310,2012-12-24 21:14:00
4:53 PM,33.1,28.0,82,29.88,4.0,NW,6.9,-,N/A,,Haze,320,2012-12-24 21:53:00
5:53 PM,32.0,26.1,79,29.93,6.0,NW,8.1,17.3,N/A,,Haze,310,2012-12-24 22:53:00
6:53 PM,32.0,26.1,79,29.94,8.0,NNW,8.1,-,N/A,,Overcast,340,2012-12-24 23:53:00
7:05 PM,32.0,26.6,80,29.94,8.0,Variable,5.8,-,N/A,,Overcast,0,2012-12-25 00:05:00
7:53 PM,32.0,26.1,79,29.98,8.0,NNW,3.5,-,N/A,,Overcast,330,2012-12-25 00:53:00
8:53 PM,32.0,26.1,79,29.99,9.0,NW,4.6,-,N/A,,Overcast,320,2012-12-25 01:53:00
9:53 PM,32.0,26.1,79,30.03,9.0,WNW,5.8,-,N/A,,Overcast,290,2012-12-25 02:53:00
10:53 PM,32.0,26.1,79,30.03,10.0,Calm,Calm,-,N/A,,Overcast,0,2012-12-25 03:53:00
11:53 PM,32.0,26.1,79,30.05,10.0,WNW,4.6,-,N/A,,Overcast,300,2012-12-25 04:53:00